Year,Month,Day,Hour,Minute,Value (Times are PST for temperature in C)
2022,10,04,00,00,12.80
2022,10,04,00,01,12.70
2022,10,04,00,02,12.70
2022,10,04,00,03,12.60
2022,10,04,00,04,12.60
2022,10,04,00,05,12.60
2022,10,04,00,06,12.60
2022,10,04,00,07,12.60
2022,10,04,00,08,12.60
2022,10,04,00,09,12.60
2022,10,04,00,10,12.60
2022,10,04,00,11,12.60
2022,10,04,00,12,12.60
2022,10,04,00,13,12.60
2022,10,04,00,14,12.60
2022,10,04,00,15,12.60
2022,10,04,00,16,12.60
2022,10,04,00,17,12.60
2022,10,04,00,18,12.60
2022,10,04,00,19,12.60
2022,10,04,00,20,12.60
2022,10,04,00,21,12.60
2022,10,04,00,22,12.60
2022,10,04,00,23,12.60
2022,10,04,00,24,12.60
2022,10,04,00,25,12.60
2022,10,04,00,26,12.60
2022,10,04,00,27,12.60
2022,10,04,00,28,12.50
2022,10,04,00,29,12.50
2022,10,04,00,30,12.50
2022,10,04,00,31,12.50
2022,10,04,00,32,12.40
2022,10,04,00,33,12.40
2022,10,04,00,34,12.40
2022,10,04,00,35,12.40
2022,10,04,00,36,12.40
2022,10,04,00,37,12.40
2022,10,04,00,38,12.30
2022,10,04,00,39,12.30
2022,10,04,00,40,12.30
2022,10,04,00,41,12.30
2022,10,04,00,42,12.30
2022,10,04,00,43,12.30
2022,10,04,00,44,12.30
2022,10,04,00,45,12.30
2022,10,04,00,46,12.30
2022,10,04,00,47,12.30
2022,10,04,00,48,12.30
2022,10,04,00,49,12.30
2022,10,04,00,50,12.30
2022,10,04,00,51,12.20
2022,10,04,00,52,12.20
2022,10,04,00,53,12.20
2022,10,04,00,54,12.20
2022,10,04,00,55,12.20
2022,10,04,00,56,12.20
2022,10,04,00,57,12.20
2022,10,04,00,58,12.20
2022,10,04,00,59,12.20
2022,10,04,01,00,12.20
2022,10,04,01,01,12.10
2022,10,04,01,02,12.10
2022,10,04,01,03,12.10
2022,10,04,01,04,12.10
2022,10,04,01,05,12.10
2022,10,04,01,06,12.10
2022,10,04,01,07,12.10
2022,10,04,01,08,12.10
2022,10,04,01,09,12.00
2022,10,04,01,10,12.00
2022,10,04,01,11,12.00
2022,10,04,01,12,12.00
2022,10,04,01,13,12.00
2022,10,04,01,14,11.90
2022,10,04,01,15,11.90
2022,10,04,01,16,11.90
2022,10,04,01,17,11.90
2022,10,04,01,18,11.90
2022,10,04,01,19,11.90
2022,10,04,01,20,11.90
2022,10,04,01,21,11.90
2022,10,04,01,22,11.90
2022,10,04,01,23,11.90
2022,10,04,01,24,11.90
2022,10,04,01,25,11.90
2022,10,04,01,26,11.90
2022,10,04,01,27,11.90
2022,10,04,01,28,11.80
2022,10,04,01,29,11.80
2022,10,04,01,30,11.90
2022,10,04,01,31,11.90
2022,10,04,01,32,11.90
2022,10,04,01,33,11.90
2022,10,04,01,34,11.90
2022,10,04,01,35,12.00
2022,10,04,01,36,12.00
2022,10,04,01,37,12.00
2022,10,04,01,38,12.00
2022,10,04,01,39,12.00
2022,10,04,01,40,12.00
2022,10,04,01,41,11.90
2022,10,04,01,42,11.90
2022,10,04,01,43,11.90
2022,10,04,01,44,11.90
2022,10,04,01,45,11.90
2022,10,04,01,46,11.90
2022,10,04,01,47,11.90
2022,10,04,01,48,11.80
2022,10,04,01,49,11.80
2022,10,04,01,50,11.80
2022,10,04,01,51,11.80
2022,10,04,01,52,11.70
2022,10,04,01,53,11.70
2022,10,04,01,54,11.70
2022,10,04,01,55,11.70
2022,10,04,01,56,11.70
2022,10,04,01,57,11.70
2022,10,04,01,58,11.70
2022,10,04,01,59,11.70
2022,10,04,02,00,11.70
2022,10,04,02,01,11.70
2022,10,04,02,02,11.70
2022,10,04,02,03,11.70
2022,10,04,02,04,11.70
2022,10,04,02,05,11.60
2022,10,04,02,06,11.60
2022,10,04,02,07,11.60
2022,10,04,02,08,11.50
2022,10,04,02,09,11.50
2022,10,04,02,10,11.40
2022,10,04,02,11,11.40
2022,10,04,02,12,11.40
2022,10,04,02,13,11.40
2022,10,04,02,14,11.40
2022,10,04,02,15,11.40
2022,10,04,02,16,11.40
2022,10,04,02,17,11.40
2022,10,04,02,18,11.50
2022,10,04,02,19,11.50
2022,10,04,02,20,11.50
2022,10,04,02,21,11.50
2022,10,04,02,22,11.50
2022,10,04,02,23,11.50
2022,10,04,02,24,11.50
2022,10,04,02,25,11.50
2022,10,04,02,26,11.50
2022,10,04,02,27,11.50
2022,10,04,02,28,11.50
2022,10,04,02,29,11.50
2022,10,04,02,30,11.50
2022,10,04,02,31,11.50
2022,10,04,02,32,11.50
2022,10,04,02,33,11.50
2022,10,04,02,34,11.40
2022,10,04,02,35,11.40
2022,10,04,02,36,11.40
2022,10,04,02,37,11.40
2022,10,04,02,38,11.40
2022,10,04,02,39,11.30
2022,10,04,02,40,11.30
2022,10,04,02,41,11.30
2022,10,04,02,42,11.30
2022,10,04,02,43,11.30
2022,10,04,02,44,11.30
2022,10,04,02,45,11.20
2022,10,04,02,46,11.20
2022,10,04,02,47,11.20
2022,10,04,02,48,11.20
2022,10,04,02,49,11.10
2022,10,04,02,50,11.10
2022,10,04,02,51,11.10
2022,10,04,02,52,11.10
2022,10,04,02,53,11.10
2022,10,04,02,54,11.10
2022,10,04,02,55,11.10
2022,10,04,02,56,11.10
2022,10,04,02,57,11.10
2022,10,04,02,58,11.10
2022,10,04,02,59,11.00
2022,10,04,03,00,11.00
2022,10,04,03,01,11.00
2022,10,04,03,02,11.00
2022,10,04,03,03,11.00
2022,10,04,03,04,11.00
2022,10,04,03,05,11.00
2022,10,04,03,06,11.00
2022,10,04,03,07,11.00
2022,10,04,03,08,10.90
2022,10,04,03,09,10.90
2022,10,04,03,10,11.00
2022,10,04,03,11,11.00
2022,10,04,03,12,11.00
2022,10,04,03,13,11.00
2022,10,04,03,14,11.00
2022,10,04,03,15,10.90
2022,10,04,03,16,10.90
2022,10,04,03,17,10.90
2022,10,04,03,18,10.90
2022,10,04,03,19,10.90
2022,10,04,03,20,10.90
2022,10,04,03,21,10.90
2022,10,04,03,22,10.90
2022,10,04,03,23,11.00
2022,10,04,03,24,11.00
2022,10,04,03,25,11.00
2022,10,04,03,26,11.10
2022,10,04,03,27,11.10
2022,10,04,03,28,11.10
2022,10,04,03,29,11.10
2022,10,04,03,30,11.10
2022,10,04,03,31,11.10
2022,10,04,03,32,11.10
2022,10,04,03,33,11.10
2022,10,04,03,34,11.10
2022,10,04,03,35,11.00
2022,10,04,03,36,11.00
2022,10,04,03,37,11.00
2022,10,04,03,38,11.10
2022,10,04,03,39,11.10
2022,10,04,03,40,11.10
2022,10,04,03,41,11.10
2022,10,04,03,42,11.10
2022,10,04,03,43,11.10
2022,10,04,03,44,11.10
2022,10,04,03,45,11.00
2022,10,04,03,46,11.00
2022,10,04,03,47,11.00
2022,10,04,03,48,10.90
2022,10,04,03,49,10.90
2022,10,04,03,50,10.80
2022,10,04,03,51,10.80
2022,10,04,03,52,10.70
2022,10,04,03,53,10.70
2022,10,04,03,54,10.70
2022,10,04,03,55,10.70
2022,10,04,03,56,10.70
2022,10,04,03,57,10.70
2022,10,04,03,58,10.70
2022,10,04,03,59,10.70
2022,10,04,04,00,10.70
2022,10,04,04,01,10.70
2022,10,04,04,02,10.70
2022,10,04,04,03,10.80
2022,10,04,04,04,10.80
2022,10,04,04,05,10.70
2022,10,04,04,06,10.70
2022,10,04,04,07,10.60
2022,10,04,04,08,10.60
2022,10,04,04,09,10.60
2022,10,04,04,10,10.50
2022,10,04,04,11,10.50
2022,10,04,04,12,10.40
2022,10,04,04,13,10.30
2022,10,04,04,14,10.30
2022,10,04,04,15,10.20
2022,10,04,04,16,10.20
2022,10,04,04,17,10.20
2022,10,04,04,18,10.20
2022,10,04,04,19,10.20
2022,10,04,04,20,10.20
2022,10,04,04,21,10.20
2022,10,04,04,22,10.20
2022,10,04,04,23,10.20
2022,10,04,04,24,10.20
2022,10,04,04,25,10.20
2022,10,04,04,26,10.30
2022,10,04,04,27,10.30
2022,10,04,04,28,10.30
2022,10,04,04,29,10.30
2022,10,04,04,30,10.30
2022,10,04,04,31,10.30
2022,10,04,04,32,10.30
2022,10,04,04,33,10.30
2022,10,04,04,34,10.30
2022,10,04,04,35,10.30
2022,10,04,04,36,10.30
2022,10,04,04,37,10.30
2022,10,04,04,38,10.30
2022,10,04,04,39,10.30
2022,10,04,04,40,10.30
2022,10,04,04,41,10.30
2022,10,04,04,42,10.30
2022,10,04,04,43,10.30
2022,10,04,04,44,10.30
2022,10,04,04,45,10.30
2022,10,04,04,46,10.30
2022,10,04,04,47,10.30
2022,10,04,04,48,10.30
2022,10,04,04,49,10.30
2022,10,04,04,50,10.30
2022,10,04,04,51,10.30
2022,10,04,04,52,10.30
2022,10,04,04,53,10.30
2022,10,04,04,54,10.30
2022,10,04,04,55,10.30
2022,10,04,04,56,10.30
2022,10,04,04,57,10.30
2022,10,04,04,58,10.30
2022,10,04,04,59,10.40
2022,10,04,05,00,10.40
2022,10,04,05,01,10.40
2022,10,04,05,02,10.50
2022,10,04,05,03,10.50
2022,10,04,05,04,10.50
2022,10,04,05,05,10.50
2022,10,04,05,06,10.60
2022,10,04,05,07,10.60
2022,10,04,05,08,10.50
2022,10,04,05,09,10.50
2022,10,04,05,10,10.40
2022,10,04,05,11,10.30
2022,10,04,05,12,10.30
2022,10,04,05,13,10.20
2022,10,04,05,14,10.20
2022,10,04,05,15,10.20
2022,10,04,05,16,10.20
2022,10,04,05,17,10.20
2022,10,04,05,18,10.20
2022,10,04,05,19,10.30
2022,10,04,05,20,10.30
2022,10,04,05,21,10.30
2022,10,04,05,22,10.30
2022,10,04,05,23,10.30
2022,10,04,05,24,10.30
2022,10,04,05,25,10.30
2022,10,04,05,26,10.30
2022,10,04,05,27,10.30
2022,10,04,05,28,10.30
2022,10,04,05,29,10.30
2022,10,04,05,30,10.30
2022,10,04,05,31,10.30
2022,10,04,05,32,10.30
2022,10,04,05,33,10.30
2022,10,04,05,34,10.30
2022,10,04,05,35,10.20
2022,10,04,05,36,10.20
2022,10,04,05,37,10.20
2022,10,04,05,38,10.20
2022,10,04,05,39,10.20
2022,10,04,05,40,10.20
2022,10,04,05,41,10.20
2022,10,04,05,42,10.20
2022,10,04,05,43,10.20
2022,10,04,05,44,10.20
2022,10,04,05,45,10.20
2022,10,04,05,46,10.20
2022,10,04,05,47,10.20
2022,10,04,05,48,10.10
2022,10,04,05,49,10.10
2022,10,04,05,50,10.00
2022,10,04,05,51,10.00
2022,10,04,05,52,9.90
2022,10,04,05,53,9.90
2022,10,04,05,54,9.80
2022,10,04,05,55,9.80
2022,10,04,05,56,9.80
2022,10,04,05,57,9.80
2022,10,04,05,58,9.70
2022,10,04,05,59,9.70
2022,10,04,06,00,9.70
2022,10,04,06,01,9.70
2022,10,04,06,02,9.70
2022,10,04,06,03,9.70
2022,10,04,06,04,9.80
2022,10,04,06,05,9.80
2022,10,04,06,06,9.80
2022,10,04,06,07,9.80
2022,10,04,06,08,9.90
2022,10,04,06,09,9.90
2022,10,04,06,10,9.90
2022,10,04,06,11,9.90
2022,10,04,06,12,9.90
2022,10,04,06,13,9.90
2022,10,04,06,14,9.90
2022,10,04,06,15,9.90
2022,10,04,06,16,9.90
2022,10,04,06,17,9.90
2022,10,04,06,18,9.90
2022,10,04,06,19,9.90
2022,10,04,06,20,9.90
2022,10,04,06,21,9.90
2022,10,04,06,22,9.80
2022,10,04,06,23,9.80
2022,10,04,06,24,9.80
2022,10,04,06,25,9.80
2022,10,04,06,26,9.80
2022,10,04,06,27,9.80
2022,10,04,06,28,9.80
2022,10,04,06,29,9.80
2022,10,04,06,30,9.70
2022,10,04,06,31,9.60
2022,10,04,06,32,9.60
2022,10,04,06,33,9.60
2022,10,04,06,34,9.50
2022,10,04,06,35,9.50
2022,10,04,06,36,9.50
2022,10,04,06,37,9.50
2022,10,04,06,38,9.50
2022,10,04,06,39,9.50
2022,10,04,06,40,9.50
2022,10,04,06,41,9.50
2022,10,04,06,42,9.50
2022,10,04,06,43,9.60
2022,10,04,06,44,9.60
2022,10,04,06,45,9.60
2022,10,04,06,46,9.60
2022,10,04,06,47,9.60
2022,10,04,06,48,9.70
2022,10,04,06,49,9.70
2022,10,04,06,50,9.70
2022,10,04,06,51,9.70
2022,10,04,06,52,9.70
2022,10,04,06,53,9.70
2022,10,04,06,54,9.70
2022,10,04,06,55,9.70
2022,10,04,06,56,9.70
2022,10,04,06,57,9.70
2022,10,04,06,58,9.70
2022,10,04,06,59,9.80
2022,10,04,07,00,9.80
2022,10,04,07,01,9.80
2022,10,04,07,02,9.80
2022,10,04,07,03,9.80
2022,10,04,07,04,9.80
2022,10,04,07,05,9.80
2022,10,04,07,06,9.80
2022,10,04,07,07,9.80
2022,10,04,07,08,9.90
2022,10,04,07,09,9.90
2022,10,04,07,10,9.90
2022,10,04,07,11,9.90
2022,10,04,07,12,9.90
2022,10,04,07,13,9.90
2022,10,04,07,14,9.90
2022,10,04,07,15,9.90
2022,10,04,07,16,9.90
2022,10,04,07,17,9.90
2022,10,04,07,18,9.80
2022,10,04,07,19,9.90
2022,10,04,07,20,9.80
2022,10,04,07,21,9.80
2022,10,04,07,22,9.80
2022,10,04,07,23,9.80
2022,10,04,07,24,9.90
2022,10,04,07,25,9.90
2022,10,04,07,26,9.90
2022,10,04,07,27,9.90
2022,10,04,07,28,9.90
2022,10,04,07,29,9.90
2022,10,04,07,30,9.90
2022,10,04,07,31,9.90
2022,10,04,07,32,9.90
2022,10,04,07,33,9.90
2022,10,04,07,34,9.90
2022,10,04,07,35,9.90
2022,10,04,07,36,9.90
2022,10,04,07,37,9.90
2022,10,04,07,38,9.90
2022,10,04,07,39,9.90
2022,10,04,07,40,9.90
2022,10,04,07,41,9.90
2022,10,04,07,42,9.90
2022,10,04,07,43,9.90
2022,10,04,07,44,9.90
2022,10,04,07,45,9.90
2022,10,04,07,46,9.90
2022,10,04,07,47,9.80
2022,10,04,07,48,9.80
2022,10,04,07,49,9.80
2022,10,04,07,50,9.70
2022,10,04,07,51,9.70
2022,10,04,07,52,9.70
2022,10,04,07,53,9.70
2022,10,04,07,54,9.70
2022,10,04,07,55,9.70
2022,10,04,07,56,9.70
2022,10,04,07,57,9.70
2022,10,04,07,58,9.70
2022,10,04,07,59,9.70
2022,10,04,08,00,9.70
2022,10,04,08,01,9.70
2022,10,04,08,02,9.70
2022,10,04,08,03,9.70
2022,10,04,08,04,9.70
2022,10,04,08,05,9.70
2022,10,04,08,06,9.70
2022,10,04,08,07,9.70
2022,10,04,08,08,9.70
2022,10,04,08,09,9.70
2022,10,04,08,10,9.70
2022,10,04,08,11,9.80
2022,10,04,08,12,9.80
2022,10,04,08,13,9.80
2022,10,04,08,14,9.80
2022,10,04,08,15,9.80
2022,10,04,08,16,9.80
2022,10,04,08,17,9.80
2022,10,04,08,18,9.90
2022,10,04,08,19,9.90
2022,10,04,08,20,9.90
2022,10,04,08,21,9.90
2022,10,04,08,22,10.00
2022,10,04,08,23,10.00
2022,10,04,08,24,10.10
2022,10,04,08,25,10.10
2022,10,04,08,26,10.10
2022,10,04,08,27,10.20
2022,10,04,08,28,10.20
2022,10,04,08,29,10.20
2022,10,04,08,30,10.30
2022,10,04,08,31,10.30
2022,10,04,08,32,10.30
2022,10,04,08,33,10.30
2022,10,04,08,34,10.30
2022,10,04,08,35,10.40
2022,10,04,08,36,10.40
2022,10,04,08,37,10.40
2022,10,04,08,38,10.50
2022,10,04,08,39,10.50
2022,10,04,08,40,10.60
2022,10,04,08,41,10.60
2022,10,04,08,42,10.70
2022,10,04,08,43,10.80
2022,10,04,08,44,10.80
2022,10,04,08,45,10.90
2022,10,04,08,46,11.00
2022,10,04,08,47,11.00
2022,10,04,08,48,11.00
2022,10,04,08,49,11.10
2022,10,04,08,50,11.20
2022,10,04,08,51,11.20
2022,10,04,08,52,11.30
2022,10,04,08,53,11.30
2022,10,04,08,54,11.30
2022,10,04,08,55,11.40
2022,10,04,08,56,11.40
2022,10,04,08,57,11.50
2022,10,04,08,58,11.50
2022,10,04,08,59,11.60
2022,10,04,09,00,11.70
2022,10,04,09,01,11.70
2022,10,04,09,02,11.80
2022,10,04,09,03,11.80
2022,10,04,09,04,11.80
2022,10,04,09,05,11.90
2022,10,04,09,06,11.90
2022,10,04,09,07,11.90
2022,10,04,09,08,11.90
2022,10,04,09,09,11.90
2022,10,04,09,10,12.00
2022,10,04,09,11,12.00
2022,10,04,09,12,12.10
2022,10,04,09,13,12.20
2022,10,04,09,14,12.20
2022,10,04,09,15,12.30
2022,10,04,09,16,12.30
2022,10,04,09,17,12.30
2022,10,04,09,18,12.40
2022,10,04,09,19,12.40
2022,10,04,09,20,12.50
2022,10,04,09,21,12.50
2022,10,04,09,22,12.50
2022,10,04,09,23,12.60
2022,10,04,09,24,12.60
2022,10,04,09,25,12.70
2022,10,04,09,26,12.70
2022,10,04,09,27,12.80
2022,10,04,09,28,12.80
2022,10,04,09,29,12.90
2022,10,04,09,30,12.90
2022,10,04,09,31,13.00
2022,10,04,09,32,13.10
2022,10,04,09,33,13.10
2022,10,04,09,34,13.20
2022,10,04,09,35,13.30
2022,10,04,09,36,13.30
2022,10,04,09,37,13.40
2022,10,04,09,38,13.40
2022,10,04,09,39,13.40
2022,10,04,09,40,13.50
2022,10,04,09,41,13.50
2022,10,04,09,42,13.50
2022,10,04,09,43,13.60
2022,10,04,09,44,13.60
2022,10,04,09,45,13.70
2022,10,04,09,46,13.70
2022,10,04,09,47,13.70
2022,10,04,09,48,13.70
2022,10,04,09,49,13.70
2022,10,04,09,50,13.80
2022,10,04,09,51,13.80
2022,10,04,09,52,13.80
2022,10,04,09,53,13.80
2022,10,04,09,54,13.90
2022,10,04,09,55,13.90
2022,10,04,09,56,13.90
2022,10,04,09,57,14.00
2022,10,04,09,58,14.10
2022,10,04,09,59,14.10
2022,10,04,10,00,14.20
2022,10,04,10,01,14.30
2022,10,04,10,02,14.40
2022,10,04,10,03,14.40
2022,10,04,10,04,14.50
2022,10,04,10,05,14.60
2022,10,04,10,06,14.70
2022,10,04,10,07,14.80
2022,10,04,10,08,14.80
2022,10,04,10,09,14.90
2022,10,04,10,10,15.00
2022,10,04,10,11,15.00
2022,10,04,10,12,15.10
2022,10,04,10,13,15.20
2022,10,04,10,14,15.20
2022,10,04,10,15,15.30
2022,10,04,10,16,15.40
2022,10,04,10,17,15.40
2022,10,04,10,18,15.50
2022,10,04,10,19,15.60
2022,10,04,10,20,15.60
2022,10,04,10,21,15.70
2022,10,04,10,22,15.70
2022,10,04,10,23,15.80
2022,10,04,10,24,15.80
2022,10,04,10,25,15.90
2022,10,04,10,26,15.90
2022,10,04,10,27,16.00
2022,10,04,10,28,16.10
2022,10,04,10,29,16.10
2022,10,04,10,30,16.10
2022,10,04,10,31,16.20
2022,10,04,10,32,16.20
2022,10,04,10,33,16.30
2022,10,04,10,34,16.30
2022,10,04,10,35,16.40
2022,10,04,10,36,16.50
2022,10,04,10,37,16.50
2022,10,04,10,38,16.60
2022,10,04,10,39,16.70
2022,10,04,10,40,16.70
2022,10,04,10,41,16.70
2022,10,04,10,42,16.70
2022,10,04,10,43,16.70
2022,10,04,10,44,16.80
2022,10,04,10,45,16.80
2022,10,04,10,46,16.90
2022,10,04,10,47,16.90
2022,10,04,10,48,17.00
2022,10,04,10,49,17.00
2022,10,04,10,50,17.10
2022,10,04,10,51,17.10
2022,10,04,10,52,17.10
2022,10,04,10,53,17.20
2022,10,04,10,54,17.20
2022,10,04,10,55,17.20
2022,10,04,10,56,17.30
2022,10,04,10,57,17.30
2022,10,04,10,58,17.30
2022,10,04,10,59,17.40
2022,10,04,11,00,17.50
2022,10,04,11,01,17.50
2022,10,04,11,02,17.60
2022,10,04,11,03,17.70
2022,10,04,11,04,17.70
2022,10,04,11,05,17.70
2022,10,04,11,06,17.70
2022,10,04,11,07,17.70
2022,10,04,11,08,17.70
2022,10,04,11,09,17.70
2022,10,04,11,10,17.70
2022,10,04,11,11,17.70
2022,10,04,11,12,17.70
2022,10,04,11,13,17.70
2022,10,04,11,14,17.70
2022,10,04,11,15,17.70
2022,10,04,11,16,17.70
2022,10,04,11,17,17.70
2022,10,04,11,18,17.70
2022,10,04,11,19,17.70
2022,10,04,11,20,17.70
2022,10,04,11,21,17.70
2022,10,04,11,22,17.70
2022,10,04,11,23,17.70
2022,10,04,11,24,17.70
2022,10,04,11,25,17.70
2022,10,04,11,26,17.60
2022,10,04,11,27,17.60
2022,10,04,11,28,17.60
2022,10,04,11,29,17.50
2022,10,04,11,30,17.50
2022,10,04,11,31,17.50
2022,10,04,11,32,17.50
2022,10,04,11,33,17.40
2022,10,04,11,34,17.40
2022,10,04,11,35,17.40
2022,10,04,11,36,17.40
2022,10,04,11,37,17.50
2022,10,04,11,38,17.50
2022,10,04,11,39,17.50
2022,10,04,11,40,17.50
2022,10,04,11,41,17.60
2022,10,04,11,42,17.60
2022,10,04,11,43,17.70
2022,10,04,11,44,17.70
2022,10,04,11,45,17.80
2022,10,04,11,46,17.80
2022,10,04,11,47,17.80
2022,10,04,11,48,17.90
2022,10,04,11,49,17.90
2022,10,04,11,50,17.90
2022,10,04,11,51,17.90
2022,10,04,11,52,17.80
2022,10,04,11,53,17.80
2022,10,04,11,54,17.70
2022,10,04,11,55,17.70
2022,10,04,11,56,17.70
2022,10,04,11,57,17.60
2022,10,04,11,58,17.60
2022,10,04,11,59,17.60
2022,10,04,12,00,17.60
2022,10,04,12,01,17.60
2022,10,04,12,02,17.60
2022,10,04,12,03,17.60
2022,10,04,12,04,17.50
2022,10,04,12,05,17.50
2022,10,04,12,06,17.40
2022,10,04,12,07,17.40
2022,10,04,12,08,17.30
2022,10,04,12,09,17.40
2022,10,04,12,10,17.40
2022,10,04,12,11,17.40
2022,10,04,12,12,17.40
2022,10,04,12,13,17.40
2022,10,04,12,14,17.40
2022,10,04,12,15,17.40
2022,10,04,12,16,17.50
2022,10,04,12,17,17.50
2022,10,04,12,18,17.50
2022,10,04,12,19,17.50
2022,10,04,12,20,17.50
2022,10,04,12,21,17.50
2022,10,04,12,22,17.50
2022,10,04,12,23,17.50
2022,10,04,12,24,17.40
2022,10,04,12,25,17.30
2022,10,04,12,26,17.30
2022,10,04,12,27,17.30
2022,10,04,12,28,17.30
2022,10,04,12,29,17.30
2022,10,04,12,30,17.30
2022,10,04,12,31,17.20
2022,10,04,12,32,17.10
2022,10,04,12,33,17.10
2022,10,04,12,34,17.00
2022,10,04,12,35,16.90
2022,10,04,12,36,16.70
2022,10,04,12,37,16.60
2022,10,04,12,38,16.40
2022,10,04,12,39,16.40
2022,10,04,12,40,16.40
2022,10,04,12,41,16.40
2022,10,04,12,42,16.40
2022,10,04,12,43,16.40
2022,10,04,12,44,16.40
2022,10,04,12,45,16.40
2022,10,04,12,46,16.30
2022,10,04,12,47,16.30
2022,10,04,12,48,16.30
2022,10,04,12,49,16.20
2022,10,04,12,50,16.20
2022,10,04,12,51,16.20
2022,10,04,12,52,16.20
2022,10,04,12,53,16.20
2022,10,04,12,54,16.20
2022,10,04,12,55,16.30
2022,10,04,12,56,16.30
2022,10,04,12,57,16.20
2022,10,04,12,58,16.20
2022,10,04,12,59,16.20
2022,10,04,13,00,16.20
2022,10,04,13,01,16.10
2022,10,04,13,02,16.00
2022,10,04,13,03,15.90
2022,10,04,13,04,15.80
2022,10,04,13,05,15.80
2022,10,04,13,06,15.80
2022,10,04,13,07,15.70
2022,10,04,13,08,15.70
2022,10,04,13,09,15.70
2022,10,04,13,10,15.70
2022,10,04,13,11,15.70
2022,10,04,13,12,15.80
2022,10,04,13,13,15.90
2022,10,04,13,14,16.00
2022,10,04,13,15,16.00
2022,10,04,13,16,16.10
2022,10,04,13,17,16.10
2022,10,04,13,18,16.20
2022,10,04,13,19,16.20
2022,10,04,13,20,16.20
2022,10,04,13,21,16.20
2022,10,04,13,22,16.20
2022,10,04,13,23,16.20
2022,10,04,13,24,16.30
2022,10,04,13,25,16.40
2022,10,04,13,26,16.40
2022,10,04,13,27,16.40
2022,10,04,13,28,16.40
2022,10,04,13,29,16.40
2022,10,04,13,30,16.40
2022,10,04,13,31,16.50
2022,10,04,13,32,16.50
2022,10,04,13,33,16.50
2022,10,04,13,34,16.50
2022,10,04,13,35,16.50
2022,10,04,13,36,16.60
2022,10,04,13,37,16.60
2022,10,04,13,38,16.60
2022,10,04,13,39,16.70
2022,10,04,13,40,16.80
2022,10,04,13,41,16.80
2022,10,04,13,42,16.90
2022,10,04,13,43,16.90
2022,10,04,13,44,17.00
2022,10,04,13,45,17.10
2022,10,04,13,46,17.10
2022,10,04,13,47,17.20
2022,10,04,13,48,17.20
2022,10,04,13,49,17.20
2022,10,04,13,50,17.20
2022,10,04,13,51,17.10
2022,10,04,13,52,17.10
2022,10,04,13,53,17.10
2022,10,04,13,54,17.10
2022,10,04,13,55,17.10
2022,10,04,13,56,17.10
2022,10,04,13,57,17.10
2022,10,04,13,58,17.10
2022,10,04,13,59,17.10
2022,10,04,14,00,17.10
2022,10,04,14,01,17.10
2022,10,04,14,02,17.10
2022,10,04,14,03,17.10
2022,10,04,14,04,17.10
2022,10,04,14,05,17.10
2022,10,04,14,06,17.20
2022,10,04,14,07,17.20
2022,10,04,14,08,17.20
2022,10,04,14,09,17.30
2022,10,04,14,10,17.30
2022,10,04,14,11,17.30
2022,10,04,14,12,17.30
2022,10,04,14,13,17.20
2022,10,04,14,14,17.20
2022,10,04,14,15,17.20
2022,10,04,14,16,17.20
2022,10,04,14,17,17.20
2022,10,04,14,18,17.20
2022,10,04,14,19,17.30
2022,10,04,14,20,17.30
2022,10,04,14,21,17.40
2022,10,04,14,22,17.50
2022,10,04,14,23,17.50
2022,10,04,14,24,17.60
2022,10,04,14,25,17.60
2022,10,04,14,26,17.70
2022,10,04,14,27,17.70
2022,10,04,14,28,17.70
2022,10,04,14,29,17.60
2022,10,04,14,30,17.60
2022,10,04,14,31,17.60
2022,10,04,14,32,17.60
2022,10,04,14,33,17.60
2022,10,04,14,34,17.60
2022,10,04,14,35,17.60
2022,10,04,14,36,17.60
2022,10,04,14,37,17.60
2022,10,04,14,38,17.70
2022,10,04,14,39,17.70
2022,10,04,14,40,17.80
2022,10,04,14,41,17.80
2022,10,04,14,42,17.90
2022,10,04,14,43,18.00
2022,10,04,14,44,18.10
2022,10,04,14,45,18.20
2022,10,04,14,46,18.20
2022,10,04,14,47,18.30
2022,10,04,14,48,18.40
2022,10,04,14,49,18.40
2022,10,04,14,50,18.50
2022,10,04,14,51,18.50
2022,10,04,14,52,18.40
2022,10,04,14,53,18.40
2022,10,04,14,54,18.40
2022,10,04,14,55,18.40
2022,10,04,14,56,18.40
2022,10,04,14,57,18.30
2022,10,04,14,58,18.30
2022,10,04,14,59,18.30
2022,10,04,15,00,18.30
2022,10,04,15,01,18.40
2022,10,04,15,02,18.50
2022,10,04,15,03,18.50
2022,10,04,15,04,18.60
2022,10,04,15,05,18.60
2022,10,04,15,06,18.70
2022,10,04,15,07,18.70
2022,10,04,15,08,18.70
2022,10,04,15,09,18.80
2022,10,04,15,10,18.70
2022,10,04,15,11,18.70
2022,10,04,15,12,18.70
2022,10,04,15,13,18.60
2022,10,04,15,14,18.60
2022,10,04,15,15,18.60
2022,10,04,15,16,18.60
2022,10,04,15,17,18.60
2022,10,04,15,18,18.60
2022,10,04,15,19,18.60
2022,10,04,15,20,18.60
2022,10,04,15,21,18.60
2022,10,04,15,22,18.60
2022,10,04,15,23,18.60
2022,10,04,15,24,18.60
2022,10,04,15,25,18.60
2022,10,04,15,26,18.70
2022,10,04,15,27,18.70
2022,10,04,15,28,18.70
2022,10,04,15,29,18.70
2022,10,04,15,30,18.70
2022,10,04,15,31,18.70
2022,10,04,15,32,18.70
2022,10,04,15,33,18.70
2022,10,04,15,34,18.70
2022,10,04,15,35,18.70
2022,10,04,15,36,18.70
2022,10,04,15,37,18.70
2022,10,04,15,38,18.70
2022,10,04,15,39,18.70
2022,10,04,15,40,18.70
2022,10,04,15,41,18.70
2022,10,04,15,42,18.70
2022,10,04,15,43,18.70
2022,10,04,15,44,18.70
2022,10,04,15,45,18.70
2022,10,04,15,46,18.70
2022,10,04,15,47,18.60
2022,10,04,15,48,18.60
2022,10,04,15,49,18.60
2022,10,04,15,50,18.60
2022,10,04,15,51,18.60
2022,10,04,15,52,18.60
2022,10,04,15,53,18.60
2022,10,04,15,54,18.60
2022,10,04,15,55,18.60
2022,10,04,15,56,18.70
2022,10,04,15,57,18.70
2022,10,04,15,58,18.80
2022,10,04,15,59,18.90
2022,10,04,16,00,18.90
2022,10,04,16,01,19.00
2022,10,04,16,02,19.00
2022,10,04,16,03,19.00
2022,10,04,16,04,19.10
2022,10,04,16,05,19.10
2022,10,04,16,06,19.10
2022,10,04,16,07,19.00
2022,10,04,16,08,19.10
2022,10,04,16,09,19.10
2022,10,04,16,10,19.10
2022,10,04,16,11,19.10
2022,10,04,16,12,19.10
2022,10,04,16,13,19.20
2022,10,04,16,14,19.20
2022,10,04,16,15,19.30
2022,10,04,16,16,19.30
2022,10,04,16,17,19.40
2022,10,04,16,18,19.40
2022,10,04,16,19,19.40
2022,10,04,16,20,19.40
2022,10,04,16,21,19.50
2022,10,04,16,22,19.60
2022,10,04,16,23,19.60
2022,10,04,16,24,19.60
2022,10,04,16,25,19.70
2022,10,04,16,26,19.70
2022,10,04,16,27,19.70
2022,10,04,16,28,19.80
2022,10,04,16,29,19.80
2022,10,04,16,30,19.90
2022,10,04,16,31,19.90
2022,10,04,16,32,20.00
2022,10,04,16,33,20.00
2022,10,04,16,34,20.10
2022,10,04,16,35,20.10
2022,10,04,16,36,20.20
2022,10,04,16,37,20.20
2022,10,04,16,38,20.20
2022,10,04,16,39,20.20
2022,10,04,16,40,20.30
2022,10,04,16,41,20.30
2022,10,04,16,42,20.30
2022,10,04,16,43,20.30
2022,10,04,16,44,20.40
2022,10,04,16,45,20.40
2022,10,04,16,46,20.40
2022,10,04,16,47,20.40
2022,10,04,16,48,20.40
2022,10,04,16,49,20.40
2022,10,04,16,50,20.40
2022,10,04,16,51,20.40
2022,10,04,16,52,20.40
2022,10,04,16,53,20.40
2022,10,04,16,54,20.40
2022,10,04,16,55,20.40
2022,10,04,16,56,20.40
2022,10,04,16,57,20.40
2022,10,04,16,58,20.40
2022,10,04,16,59,20.50
2022,10,04,17,00,20.50
2022,10,04,17,01,20.50
2022,10,04,17,02,20.50
2022,10,04,17,03,20.60
2022,10,04,17,04,20.60
2022,10,04,17,05,20.70
2022,10,04,17,06,20.70
2022,10,04,17,07,20.70
2022,10,04,17,08,20.70
2022,10,04,17,09,20.70
2022,10,04,17,10,20.70
2022,10,04,17,11,20.70
2022,10,04,17,12,20.70
2022,10,04,17,13,20.70
2022,10,04,17,14,20.70
2022,10,04,17,15,20.70
2022,10,04,17,16,20.70
2022,10,04,17,17,20.60
2022,10,04,17,18,20.60
2022,10,04,17,19,20.60
2022,10,04,17,20,20.60
2022,10,04,17,21,20.60
2022,10,04,17,22,20.70
2022,10,04,17,23,20.70
2022,10,04,17,24,20.70
2022,10,04,17,25,20.70